Wind_Speed
5 3 1 0 2 3 4 2 1 2 2 3 5 3 6 7 9 7 5 5 5 4 4 4 5 4 4 3 5 9 7 4 1 1 1 4 20 28 28 30 32 32 29 25 25 24 24 23 21 22 22 23 23 22 21 20 19 19 21 23 23 23 22 21 21 20 19 19 18 18 18 17 17 16 16 15 16 18 18 17 18 18 18 18 18 19 19 19 18 17 16 16 15 13 17 20 20
5 3 3 3 5 2 2 2 1 2 2 5 5 4 8 5 3 0 6 8 4 2 4 5 5 5 4 2 4 11 10 6 5 3 4 19 27 26 30 30 32 32 28 27 26 25 24 22 21 22 21 22 22 22 21 20 19 19 22 22 22 22 21 21 20 20 19 19 18 18 18 18 18 17 16 15 16 19 18 17 18 17 17 17 17 18 17 18 17 16 15 14 13 13 17 18 19
6 4 6 7 6 4 2 0 2 2 2 6 5 5 7 4 2 6 7 8 5 4 6 6 6 4 4 6 5 8 6 4 9 5 6 21 20 20 31 30 31 30 28 27 25 25 23 22 21 21 21 21 21 22 21 20 19 20 22 22 22 21 20 20 19 20 19 19 18 18 18 18 18 16 15 14 17 19 16 15 17 17 17 16 16 15 15 16 16 15 14 13 12 13 17 18 19
7 5 7 5 2 2 1 1 3 2 4 5 4 5 1 2 2 7 6 6 5 3 3 4 4 0 3 7 6 7 6 5 9 7 6 17 19 24 33 31 31 30 27 24 23 25 22 21 20 20 20 20 21 22 21 20 19 20 22 22 20 19 19 19 19 18 18 18 18 18 19 18 17 16 15 15 18 18 15 14 16 17 15 15 14 14 14 14 14 14 13 13 12 12 17 19 18
7 7 8 5 1 1 0 2 3 4 6 4 4 5 5 4 4 5 2 3 6 5 2 2 1 1 7 7 3 3 3 7 12 14 17 25 25 27 32 32 31 28 25 21 22 23 21 20 20 20 20 20 21 21 21 20 19 19 21 21 19 18 19 19 18 18 18 17 17 18 18 18 17 16 16 16 17 18 14 13 16 16 14 14 14 14 14 13 13 13 12 12 11 12 16 19 17
6 6 8 6 3 2 0 3 3 5 7 5 5 3 3 5 5 4 4 3 4 4 3 3 1 4 8 5 5 5 5 8 10 17 23 22 25 29 32 34 30 25 22 19 21 23 22 21 20 20 20 20 20 21 21 20 19 19 20 20 18 18 19 18 17 17 17 17 18 18 17 17 17 17 16 16 17 17 14 13 14 15 14 13 14 13 13 13 12 11 10 10 10 11 15 18 17
5 5 3 3 2 2 1 4 5 6 8 8 5 3 2 4 2 4 7 5 5 4 3 2 3 7 6 3 5 12 20 19 14 20 27 25 27 31 34 36 34 29 22 19 22 24 22 21 21 20 21 21 21 21 21 19 19 19 19 19 19 19 18 17 17 17 17 18 19 17 16 16 17 17 16 16 16 15 14 13 13 15 14 13 13 13 12 11 10 10 9 9 10 11 14 17 16
7 4 0 1 1 2 2 5 6 6 9 8 4 4 2 4 3 4 6 3 3 1 3 3 5 7 6 7 6 13 28 31 27 28 30 26 27 31 35 37 35 30 25 23 23 25 22 21 21 20 21 21 21 21 20 19 18 19 18 17 18 19 18 16 17 18 18 18 18 17 16 16 16 16 16 16 16 15 14 13 14 14 14 13 13 12 10 9 8 9 9 9 9 11 14 16 15
7 4 1 1 2 3 4 5 6 8 10 8 3 4 4 3 2 3 2 4 3 2 3 4 4 8 8 12 8 8 20 31 33 29 28 27 30 32 33 33 33 29 26 26 26 24 22 21 21 20 21 20 20 20 19 18 18 18 17 17 18 18 17 15 17 18 18 18 17 17 16 16 16 16 16 17 16 15 14 14 13 13 12 12 12 10 8 7 7 8 8 9 9 11 13 15 15
3 4 1 1 2 4 5 6 6 7 9 4 4 4 4 3 2 3 1 3 5 3 0 1 9 12 10 10 6 5 14 27 31 27 28 29 31 32 32 32 32 30 28 30 29 26 23 22 22 21 21 20 20 19 18 17 17 17 16 18 18 17 16 15 16 17 18 18 17 17 15 15 16 16 16 17 17 16 15 14 13 11 11 11 10 8 7 7 8 8 9 9 10 11 14 16 16
1 3 2 2 3 4 5 6 7 8 7 4 4 3 2 2 3 2 2 2 5 4 3 1 8 14 12 8 4 8 19 27 28 25 26 28 30 31 32 31 29 30 32 33 31 29 27 24 23 22 22 22 21 21 20 19 18 16 17 19 18 16 16 16 16 16 18 18 17 16 14 15 15 16 16 17 17 16 15 14 13 11 10 10 8 7 7 7 8 8 9 10 10 13 17 18 17
2 4 2 3 4 4 5 5 8 8 4 2 2 1 2 3 5 3 6 6 6 6 5 3 7 10 11 6 3 10 20 23 25 25 26 29 31 32 33 31 28 27 31 35 34 32 30 27 25 24 24 23 23 22 21 21 19 17 18 19 17 16 16 16 16 18 19 17 17 14 13 14 14 15 15 16 16 16 15 14 12 11 10 9 7 8 8 8 8 9 10 10 11 15 18 18 16
3 4 2 4 4 4 6 6 7 5 2 1 1 2 1 5 6 5 6 5 7 6 6 9 8 9 8 5 5 8 13 15 21 24 26 30 32 33 33 31 27 27 30 33 33 33 32 30 29 28 28 26 25 23 22 22 21 20 20 19 17 16 16 17 18 19 19 17 16 14 13 13 14 14 14 14 15 16 15 13 12 11 10 8 7 9 9 8 8 9 10 11 12 15 18 17 15
4 4 3 4 4 4 5 6 6 2 0 2 1 1 2 4 4 3 3 4 6 1 5 8 10 11 8 5 5 4 6 13 19 23 27 31 32 33 32 30 29 28 28 29 31 33 34 33 33 33 32 30 29 27 25 25 24 24 22 21 19 17 18 20 20 20 18 16 15 14 13 13 13 13 12 13 14 16 14 13 12 11 10 8 8 10 9 9 9 9 10 11 12 15 17 16 14
6 3 3 4 4 5 4 6 6 1 2 3 0 2 3 3 3 4 2 2 5 0 5 6 6 7 6 6 5 5 11 17 21 24 27 29 30 30 30 30 29 28 25 25 27 29 31 32 34 34 34 33 33 31 30 29 27 26 24 23 21 19 20 21 20 20 18 17 15 14 13 13 12 12 12 13 15 15 14 13 12 11 9 8 9 9 9 9 9 9 10 11 12 13 16 16 14
5 2 2 3 4 6 4 6 5 1 3 1 2 3 3 3 3 2 2 3 3 4 6 6 5 6 6 7 10 14 20 24 25 25 27 27 27 26 26 28 28 26 25 24 24 25 26 28 30 31 32 32 33 33 33 32 31 29 27 25 23 22 22 21 20 19 18 17 16 14 13 13 12 12 12 13 14 15 14 13 12 11 9 8 9 9 10 9 9 9 9 10 12 13 16 16 15
4 3 3 4 5 5 4 4 3 1 1 5 7 6 4 3 3 1 1 1 3 9 11 7 7 8 8 12 20 26 26 28 28 26 25 24 24 22 22 24 25 24 25 24 23 23 23 25 27 28 29 30 31 31 32 32 32 32 30 27 25 23 22 21 20 18 18 17 16 14 13 13 13 13 13 14 14 13 13 12 12 11 8 7 8 9 10 10 10 10 9 10 11 14 16 16 14
3 3 4 5 5 5 6 3 1 2 1 5 5 5 4 3 4 3 4 4 8 13 11 10 12 12 14 19 27 30 29 30 29 25 21 19 19 18 18 20 21 21 23 23 23 25 25 26 26 27 28 27 28 28 27 28 29 30 29 28 26 24 21 21 20 19 18 17 15 14 14 14 13 12 13 14 14 12 12 13 12 10 8 7 8 9 10 10 9 9 10 10 11 13 14 13 12
4 3 4 5 5 6 8 5 3 3 2 3 4 3 3 3 5 3 3 4 9 12 8 10 13 14 16 18 23 26 27 27 25 22 18 16 16 16 16 18 19 20 22 23 25 27 27 26 25 27 26 24 25 25 25 25 26 27 27 27 26 24 22 21 21 20 18 16 15 14 14 13 12 12 13 14 14 12 12 13 12 10 9 8 8 8 9 10 9 9 10 9 10 11 11 10 9
4 4 4 5 6 7 10 6 5 5 5 6 5 4 4 4 5 4 5 6 8 11 7 9 10 12 14 14 17 20 22 21 22 21 17 16 16 17 18 18 19 20 23 24 26 27 27 27 26 27 25 22 24 23 23 25 26 26 26 25 24 23 23 22 22 21 19 17 15 14 14 13 12 12 12 12 13 13 13 12 11 11 10 8 8 8 9 10 9 9 9 9 11 10 10 9 7
3 5 6 5 5 8 9 4 6 7 7 5 5 6 6 2 3 2 6 6 4 7 7 10 12 12 13 12 13 14 15 15 18 18 17 17 16 16 17 18 20 20 22 23 25 26 26 26 26 27 24 22 23 23 24 24 25 26 24 23 24 24 25 25 24 23 21 18 16 15 13 13 12 12 13 12 13 13 13 12 11 11 11 10 8 8 10 10 9 9 9 10 10 10 9 7 5
3 6 8 8 8 9 6 4 6 6 6 3 4 5 6 2 3 2 5 4 2 4 7 12 14 13 13 12 10 10 10 10 12 13 16 18 18 18 17 18 18 19 21 22 23 25 25 25 26 26 23 22 24 23 24 24 24 25 23 23 25 26 27 27 26 24 22 19 18 15 14 14 13 13 15 14 13 12 12 12 10 9 10 11 10 10 10 11 10 10 10 10 9 8 6 4 5
4 5 6 8 9 9 7 4 4 6 6 2 2 4 4 5 4 4 5 5 1 8 11 12 13 13 14 13 10 9 8 8 8 10 14 14 15 17 18 19 19 19 20 21 23 24 24 24 26 27 24 24 24 23 25 25 24 24 24 24 25 26 27 27 25 23 21 20 18 17 16 15 14 14 15 15 13 12 11 11 9 7 8 10 11 11 11 12 11 10 10 9 8 6 4 3 6
6 6 6 8 8 8 8 3 3 5 3 2 2 4 5 4 3 4 6 5 7 14 13 14 12 11 14 11 10 9 8 8 8 12 16 14 14 15 16 20 21 20 18 19 21 22 22 25 28 29 27 27 26 25 26 26 25 25 24 24 25 25 26 26 25 24 22 21 19 17 17 16 15 15 15 14 13 12 10 9 8 7 7 8 10 11 11 12 12 11 10 9 7 5 4 5 6
7 7 7 8 8 8 8 4 1 2 2 3 3 5 5 5 4 3 7 4 9 15 14 14 12 11 11 9 9 8 7 7 8 15 19 19 19 16 15 19 22 20 19 19 20 21 22 25 29 30 29 29 28 28 28 28 26 25 25 25 25 25 25 25 25 25 24 23 20 18 17 15 15 15 15 15 13 12 10 8 8 8 7 7 9 11 10 9 10 11 9 7 8 6 5 6 6
8 9 8 7 8 8 6 5 3 2 3 3 4 6 7 7 5 4 8 3 9 14 14 13 12 11 9 8 8 6 7 7 8 14 19 21 20 18 17 20 22 21 20 20 20 22 23 25 29 31 29 28 28 29 30 28 26 26 26 25 25 24 24 24 25 24 24 23 21 19 18 16 14 14 15 14 13 11 10 9 9 9 7 7 9 10 9 7 8 10 8 8 8 6 6 7 6
6 7 7 8 9 7 5 4 4 3 4 4 4 6 6 6 3 4 8 4 12 15 13 12 11 10 8 7 6 4 5 8 10 14 16 18 19 19 20 20 21 21 21 20 21 23 23 24 29 30 27 26 27 28 30 28 26 25 25 25 24 23 23 24 23 23 23 23 21 20 19 18 15 14 15 15 14 12 12 12 10 10 11 11 8 7 9 8 7 8 9 10 8 7 7 6 6
5 3 4 9 7 5 5 5 5 2 3 5 4 6 7 5 4 6 8 6 14 15 13 12 11 9 8 7 6 5 4 6 10 14 14 15 18 21 21 20 21 21 21 21 23 25 24 25 28 28 25 25 25 27 29 28 25 23 23 24 22 22 23 23 22 21 23 22 20 20 19 19 17 16 17 16 15 15 14 13 12 11 12 13 9 9 11 9 8 9 10 10 7 6 7 6 6
7 5 4 6 5 5 7 5 6 3 3 5 3 5 6 6 7 9 9 5 13 14 12 11 10 9 7 7 6 4 4 5 5 9 15 18 19 20 19 19 21 21 19 19 22 25 25 25 25 25 25 27 27 25 27 27 24 21 21 23 21 22 21 20 20 21 22 21 19 20 19 19 18 17 18 17 15 15 14 13 13 12 13 12 10 10 11 10 10 10 10 10 7 6 7 7 8
5 5 3 4 4 6 8 6 7 6 5 6 4 4 6 6 9 10 10 7 12 12 11 11 9 8 7 6 5 5 5 4 0 4 16 20 19 18 18 20 20 20 20 19 20 23 24 23 24 25 26 29 29 24 24 23 21 21 21 22 21 21 19 18 20 21 21 20 20 19 18 18 17 15 17 17 14 15 14 12 12 13 12 11 9 10 10 11 10 10 10 9 8 7 7 8 9
4 3 3 2 2 7 8 7 10 9 6 7 7 5 6 7 9 9 10 8 12 12 11 11 9 8 7 6 7 6 5 5 4 10 18 20 19 18 19 20 20 19 19 18 18 20 22 23 25 26 26 28 26 22 22 20 18 20 21 21 19 18 19 19 20 20 19 19 19 18 18 17 15 14 15 15 13 14 13 12 12 13 12 11 10 9 9 10 9 8 8 9 10 9 9 11 11
2 1 4 3 4 8 8 8 12 11 6 9 8 4 6 7 10 11 12 9 12 12 10 11 10 9 7 6 7 7 5 7 13 18 21 20 20 20 20 19 18 17 17 18 19 18 20 23 25 26 26 26 22 19 21 19 17 17 18 20 19 18 20 20 19 18 17 18 17 17 17 16 14 13 13 13 13 13 13 13 14 14 13 13 12 10 10 9 8 7 7 9 10 9 12 16 13
3 4 4 4 5 8 7 8 13 12 7 8 8 3 5 6 9 11 11 11 15 13 10 11 11 9 8 6 6 7 6 8 11 16 21 22 21 19 19 18 17 17 17 19 20 19 20 22 24 25 26 25 20 19 19 18 16 13 15 19 18 18 19 18 16 17 17 17 17 16 16 16 14 14 13 13 13 13 13 14 16 15 14 14 13 13 11 9 9 8 5 6 8 9 14 16 13
3 4 4 5 7 7 5 5 11 12 7 7 7 4 7 8 10 8 4 15 15 13 12 12 11 10 7 6 6 6 7 8 7 11 19 22 20 18 18 19 19 18 18 20 22 22 19 20 21 21 23 22 20 21 20 18 14 10 14 16 14 14 16 15 14 15 16 17 18 16 17 17 15 14 13 12 12 13 14 15 15 15 15 15 14 13 11 11 12 9 4 6 9 13 14 14 15
4 5 4 5 8 7 5 4 8 11 8 8 8 7 9 10 10 6 5 13 14 13 12 11 11 10 8 6 7 6 7 8 7 13 22 24 23 20 20 22 20 20 21 19 19 19 16 17 19 17 18 20 22 23 21 18 13 10 15 16 13 12 13 14 15 15 14 16 18 17 17 19 17 14 14 13 14 15 15 15 14 14 14 14 14 12 10 11 12 11 7 7 12 15 13 15 19
7 5 4 5 6 8 7 8 10 11 8 6 8 7 8 8 8 6 3 7 13 14 10 9 10 9 8 7 6 7 8 7 9 18 24 24 24 24 23 24 22 21 21 19 17 15 15 19 20 17 18 23 25 24 20 19 16 13 14 15 15 13 13 15 17 16 14 14 16 17 18 19 19 16 15 16 16 16 17 15 14 14 14 13 13 12 11 10 11 11 9 9 14 16 13 16 21
8 6 5 5 4 8 5 9 9 8 7 5 7 5 5 6 8 7 3 1 9 14 11 9 9 8 8 7 7 7 7 6 12 21 24 25 27 27 26 26 24 23 21 22 22 20 20 21 22 20 21 25 25 23 21 20 20 17 16 18 19 18 17 17 17 17 15 15 15 17 19 19 19 18 17 17 16 17 17 16 14 14 13 12 11 12 11 11 12 12 11 11 16 19 14 15 21
8 6 7 6 4 8 3 10 9 6 6 5 4 3 4 6 7 8 4 1 6 13 14 11 11 10 9 9 9 8 6 6 11 17 21 24 27 28 27 26 28 27 24 26 27 24 22 21 23 23 23 25 23 23 23 20 20 21 20 21 21 21 21 18 17 17 17 18 18 18 19 20 20 19 18 17 16 18 17 15 14 13 13 11 11 12 12 12 13 14 14 12 14 20 17 19 24
7 5 5 5 4 7 3 5 6 6 4 3 3 2 5 6 6 9 7 3 5 12 15 15 14 12 10 10 9 8 8 8 9 12 16 21 25 27 27 25 26 27 27 29 27 23 24 24 25 25 24 25 23 23 23 20 19 19 18 17 18 20 21 17 16 17 17 18 19 20 20 21 21 20 18 18 18 18 16 15 13 13 12 11 11 12 11 12 13 14 14 12 13 19 19 22 23
5 6 4 4 6 6 4 1 4 6 3 3 5 3 4 5 5 7 8 7 4 11 16 16 15 14 14 14 12 12 11 11 11 11 11 16 22 25 26 24 23 24 25 27 28 27 29 29 28 27 26 25 22 20 19 17 17 16 15 15 16 19 19 16 16 17 17 17 20 21 21 21 22 20 19 19 18 16 15 13 13 13 12 11 11 11 12 14 14 13 13 13 14 17 17 17 14
4 5 3 2 7 6 5 3 1 1 1 3 6 2 3 4 5 6 7 8 5 7 12 13 14 14 15 14 14 14 15 13 13 13 11 13 17 22 27 26 25 27 26 26 30 31 32 31 29 29 28 25 23 20 19 18 17 16 15 15 16 18 17 17 18 19 18 19 20 22 22 22 22 21 19 18 17 16 14 13 13 13 12 10 11 11 13 13 12 13 13 12 14 16 16 14 11
2 1 2 4 9 9 9 8 5 4 5 2 5 3 5 5 5 8 7 6 7 6 8 10 13 13 12 13 13 12 12 13 13 14 13 12 16 21 25 26 26 28 29 29 30 31 31 29 28 28 27 26 25 23 22 21 20 21 20 20 20 19 19 20 23 23 22 22 22 22 23 23 22 20 19 17 17 16 14 13 13 13 12 10 10 12 12 11 11 12 12 12 13 15 16 15 14
1 2 5 7 8 9 10 9 5 1 3 3 4 4 4 5 5 9 8 8 9 7 8 9 11 14 13 12 12 10 10 10 9 11 12 12 16 18 21 23 26 28 31 30 27 26 29 28 28 28 26 25 25 24 23 23 23 24 24 24 23 23 22 21 24 25 24 24 23 22 22 23 22 20 20 18 17 15 14 13 13 13 12 11 11 10 10 11 12 11 11 12 12 14 17 16 16
1 4 6 7 8 9 10 9 6 3 3 3 2 2 3 4 6 7 6 7 8 8 9 9 7 13 17 14 12 13 11 9 8 9 10 11 14 18 21 23 27 30 31 29 27 26 28 30 30 29 27 26 25 25 25 24 25 25 25 24 21 23 23 22 23 23 22 23 23 22 22 23 22 20 19 18 16 15 13 12 13 13 13 12 10 10 10 11 12 12 11 12 11 13 15 15 16
3 5 8 9 7 8 8 6 6 3 1 3 3 1 2 4 5 7 7 5 1 4 6 4 3 4 13 14 11 10 8 7 9 9 9 10 13 20 23 23 27 31 28 29 32 29 27 30 31 30 29 27 25 25 25 25 25 26 25 23 20 21 22 21 23 23 23 23 22 21 22 22 21 19 18 16 15 14 13 12 13 14 14 13 11 11 11 11 12 13 13 12 11 12 13 14 15
4 7 8 9 6 5 1 1 3 3 1 3 3 1 2 5 5 5 5 3 2 5 7 8 10 11 11 10 9 9 8 6 9 10 10 12 18 22 23 22 26 29 28 30 33 29 25 29 32 30 29 27 25 23 24 25 26 26 25 23 21 20 20 19 21 23 23 23 21 20 20 21 20 18 17 15 14 13 12 13 14 14 14 13 12 12 12 12 11 11 11 11 12 12 12 13 14
5 6 6 6 6 3 2 2 3 4 2 4 4 4 4 4 5 3 2 2 1 5 7 7 9 12 12 11 9 9 8 7 8 10 11 14 19 22 21 21 24 25 26 29 31 28 24 25 28 29 26 25 23 21 23 24 25 26 26 24 22 22 21 20 20 21 22 22 21 19 19 20 18 17 16 15 15 13 11 13 14 12 13 13 12 13 13 12 12 11 10 11 11 12 12 13 12
6 5 4 2 4 2 3 4 3 0 4 4 4 5 4 4 3 3 5 4 5 6 8 8 9 9 9 8 8 7 5 5 7 8 8 8 10 15 17 19 21 23 25 26 24 23 21 20 22 23 22 21 21 20 21 23 25 26 25 24 23 23 24 22 21 22 23 23 22 20 18 18 17 16 16 16 15 13 13 14 14 12 13 12 11 11 13 13 13 11 10 11 12 12 12 13 13
6 4 3 3 1 1 1 2 1 2 5 5 6 7 5 4 4 2 6 7 8 9 7 8 9 7 7 7 6 6 6 6 5 5 6 5 4 5 6 7 10 14 18 18 15 12 12 14 15 17 17 17 19 19 20 21 22 23 22 22 23 23 23 22 22 23 23 23 22 21 19 19 19 18 17 16 15 14 14 15 15 14 13 12 10 11 14 15 13 12 11 10 11 11 11 13 13
5 5 3 4 2 1 2 3 3 3 5 6 7 5 3 1 2 3 7 8 8 9 9 9 9 7 7 7 8 8 9 9 8 8 9 8 9 13 15 14 13 13 14 11 7 3 4 8 10 11 13 15 17 17 17 18 18 19 19 19 20 21 21 21 21 22 21 22 21 21 22 21 20 19 18 17 17 16 15 15 15 13 13 14 12 11 14 15 13 12 10 10 10 11 11 11 11
4 4 4 5 4 3 3 3 3 4 4 3 2 2 2 3 3 4 5 8 9 10 9 10 11 9 8 8 9 9 9 9 7 7 8 6 8 11 10 10 12 14 18 19 14 8 2 6 9 10 10 14 17 15 13 12 11 13 16 17 17 19 20 19 20 20 20 21 21 21 22 22 21 20 20 20 19 18 15 15 16 13 13 15 14 12 14 16 15 13 11 11 10 11 12 11 10
3 4 5 4 5 5 4 4 5 4 1 2 1 1 0 2 3 4 6 10 10 10 11 12 12 10 10 9 9 9 9 9 8 8 8 6 8 10 9 11 11 7 7 7 10 9 6 5 9 14 15 16 16 13 13 12 8 10 12 14 16 17 20 20 19 20 20 21 21 22 22 22 22 21 20 20 20 19 16 16 17 14 13 14 13 13 12 13 14 14 12 12 12 12 12 11 10
3 3 5 6 6 6 3 4 3 4 3 2 2 2 3 1 2 5 8 10 10 11 11 11 11 11 11 9 9 10 10 10 10 8 6 5 6 8 9 11 11 8 9 7 3 6 6 2 3 9 11 16 17 16 18 17 13 14 13 13 15 16 19 21 20 22 22 20 20 21 22 23 23 21 21 21 21 20 16 16 16 14 13 13 13 12 11 10 12 12 11 12 13 13 12 10 9
4 4 5 6 5 4 3 1 2 3 2 3 3 5 1 1 1 4 5 9 9 10 10 10 11 12 12 11 11 12 11 10 10 7 5 4 3 5 9 11 12 13 15 17 12 5 2 6 4 7 13 17 17 15 17 16 16 17 16 14 17 18 19 21 22 23 21 19 21 23 24 24 24 23 22 21 21 19 16 15 15 14 15 15 13 13 12 11 11 12 11 11 12 12 10 10 9
6 5 5 4 4 4 2 2 2 2 2 3 2 5 2 2 0 4 4 7 7 8 9 10 11 11 11 9 10 11 10 8 8 7 6 4 5 8 9 12 14 17 19 21 18 10 6 6 6 11 18 19 16 14 14 14 16 16 15 15 17 18 18 17 17 18 19 20 24 25 25 26 26 24 21 20 19 18 17 16 14 15 16 15 13 14 14 13 12 14 13 11 11 10 9 10 9
6 5 4 1 4 4 3 3 4 3 3 2 1 3 2 0 0 4 5 6 6 6 7 9 10 10 9 7 8 8 8 6 6 6 6 5 7 10 9 11 13 16 18 21 22 17 11 8 8 15 20 19 18 19 18 18 19 18 16 17 18 17 16 12 11 16 21 24 24 24 25 25 25 22 20 20 19 17 16 15 16 17 15 13 13 15 15 13 13 14 12 11 11 9 8 10 9
5 4 3 2 1 2 1 2 3 4 3 2 2 1 3 2 2 2 3 4 6 8 8 8 9 10 8 7 6 6 6 6 6 6 6 7 8 11 12 13 14 15 17 18 21 21 17 12 10 14 19 19 18 20 22 23 23 21 19 20 21 20 18 16 17 21 25 25 24 23 23 23 23 21 21 20 18 15 14 14 17 16 13 14 15 14 14 15 14 12 11 11 10 10 9 9 9
6 5 4 4 2 2 2 3 3 2 3 3 4 2 4 2 3 3 2 3 5 10 11 8 8 9 7 5 5 6 6 6 7 7 7 8 10 13 15 15 17 17 17 16 16 18 19 18 14 15 17 18 19 20 22 23 23 21 21 22 23 21 20 22 23 22 23 23 22 21 21 22 22 21 20 19 16 14 14 15 16 14 12 15 15 13 14 15 12 11 12 9 7 10 10 7 9
Wind_Direction
262 253 240 291 266 295 294 225 119 267 175 266 252 242 258 229 240 276 338 21 48 29 19 44 55 56 81 95 113 79 47 46 47 102 176 123 109 123 132 132 138 139 136 133 135 138 140 144 147 146 148 149 151 154 152 150 148 147 148 149 148 145 142 139 137 135 133 130 128 127 125 121 115 111 108 106 105 106 106 104 103 100 95 90 85 82 80 79 78 82 88 94 91 98 109 109 108
240 250 282 281 266 268 270 185 150 270 164 267 253 211 252 262 261 119 62 57 50 334 8 36 50 42 54 51 109 84 58 51 85 91 102 109 105 111 120 124 127 128 126 126 130 133 138 143 146 146 147 149 152 155 154 153 150 150 153 153 150 147 143 139 137 135 133 131 130 129 127 122 117 113 112 111 107 108 109 107 105 101 97 93 88 85 83 80 76 76 82 91 92 104 116 116 112
233 256 286 279 258 232 283 318 204 248 194 249 263 241 243 244 151 106 83 80 74 10 11 10 41 40 13 18 53 82 85 98 92 86 100 106 104 101 108 112 113 113 113 118 127 131 137 143 146 147 147 150 154 157 157 155 153 153 156 155 150 146 142 139 136 134 133 132 131 130 129 125 122 119 118 116 111 111 113 111 107 103 99 95 91 89 86 82 78 76 77 84 93 111 122 121 117
242 241 264 276 267 227 292 250 200 206 230 245 269 291 310 145 112 92 95 110 109 73 29 11 42 119 52 58 77 84 88 94 77 81 65 69 88 105 103 103 101 99 103 112 125 131 138 144 148 148 149 151 155 158 158 158 155 154 155 154 147 143 142 139 137 136 135 133 130 131 131 130 127 124 124 120 115 115 116 111 107 105 101 99 96 93 90 83 81 81 78 79 88 114 128 126 120
254 244 251 254 260 227 186 245 210 199 230 233 248 312 36 69 35 56 73 116 124 123 123 69 38 11 69 62 73 83 85 88 67 71 62 48 61 83 89 94 93 93 101 110 124 133 141 147 151 151 153 154 157 159 158 158 154 153 154 153 146 143 145 141 141 140 137 133 131 133 134 133 131 128 128 125 119 119 120 110 108 111 105 101 98 95 90 85 84 83 82 82 86 110 131 132 123
264 268 255 234 255 296 46 260 250 243 239 228 244 291 53 58 24 3 0 43 83 96 110 89 48 66 77 64 57 49 49 89 72 71 80 73 74 82 91 100 104 107 111 116 128 137 146 152 155 155 156 156 158 157 155 154 151 151 153 156 153 150 149 146 144 144 139 135 136 135 134 135 135 134 133 129 122 124 125 113 110 113 106 101 99 94 90 89 90 89 87 87 91 110 131 137 129
265 287 263 208 259 280 213 253 250 264 256 241 238 220 112 75 60 10 12 22 22 29 93 110 146 96 84 97 68 46 56 81 93 91 103 113 108 107 114 119 123 126 129 133 138 143 150 155 156 157 156 155 156 154 152 150 149 150 153 158 159 157 153 149 148 147 140 140 142 139 137 138 140 140 138 132 127 131 130 117 114 114 109 107 102 96 95 98 99 94 90 87 90 107 128 140 138
250 261 295 173 255 246 208 250 250 255 263 261 230 170 115 79 105 46 11 355 2 6 148 197 156 95 62 72 78 55 65 89 104 105 113 119 117 120 129 132 130 132 138 142 144 144 149 154 153 154 152 152 152 151 151 149 151 152 154 158 159 159 155 152 152 149 145 146 147 144 143 142 143 143 140 136 134 138 134 125 121 117 115 111 106 104 107 108 101 92 86 86 90 103 122 139 144
240 230 271 232 223 255 241 249 249 243 256 262 209 155 120 108 105 86 4 322 305 264 183 210 130 98 84 75 81 67 73 97 106 108 111 112 116 124 131 132 133 134 135 137 141 141 146 151 150 151 150 150 149 149 152 152 155 155 157 158 157 157 154 153 151 150 149 150 150 148 148 145 145 142 140 141 143 145 138 131 125 120 118 113 112 116 118 111 100 89 80 85 95 106 121 135 141
223 201 227 266 227 258 258 258 254 251 255 232 159 140 136 146 103 110 116 277 281 326 212 189 89 98 97 78 70 68 92 106 105 102 105 111 120 127 132 133 137 137 133 135 138 141 145 151 151 151 150 149 150 152 155 156 157 158 161 159 157 156 153 153 151 150 150 152 153 150 149 148 147 142 142 146 148 149 142 136 131 127 125 119 121 122 116 108 97 87 81 87 99 112 123 130 134
236 216 192 260 261 256 252 260 263 265 253 181 128 117 130 115 89 77 36 312 301 333 285 261 100 101 91 83 69 75 95 103 99 101 111 120 127 131 134 136 140 139 138 140 143 145 147 152 152 151 152 153 155 157 159 161 161 161 163 161 157 157 154 154 153 150 151 155 154 152 152 151 150 146 145 149 152 151 145 142 138 137 136 128 128 123 111 103 95 87 86 92 104 118 125 128 128
242 251 179 226 239 236 246 259 262 272 273 114 97 124 144 107 96 62 35 6 331 322 333 56 122 109 91 92 88 76 80 93 106 114 122 124 128 131 133 138 141 142 144 146 148 147 146 152 155 155 156 156 157 160 162 162 163 162 162 160 159 159 158 157 154 152 155 157 155 156 156 155 156 151 150 153 156 154 148 147 145 145 143 135 133 122 111 106 96 90 92 95 106 123 129 129 125
220 251 214 236 234 235 255 264 267 291 345 45 227 210 136 73 65 46 41 353 316 318 18 73 112 97 92 107 98 81 75 99 116 120 126 126 129 131 134 139 140 143 146 148 150 148 149 154 157 159 159 158 159 162 164 164 164 163 162 162 163 164 163 160 156 155 158 157 156 158 157 162 163 156 155 158 160 159 152 149 150 151 147 144 137 121 113 108 97 95 99 97 107 127 134 131 121
213 241 220 253 268 269 269 269 281 342 81 247 265 316 39 66 84 70 47 299 295 318 67 83 105 94 103 128 103 94 107 120 118 121 126 125 128 129 133 137 137 141 145 150 152 153 155 158 161 162 161 161 163 164 166 168 166 165 165 166 167 168 166 162 159 159 161 158 156 158 159 166 169 163 161 163 166 165 155 150 152 154 154 152 132 121 118 109 100 103 105 102 106 126 138 132 118
214 245 236 264 280 278 272 265 279 142 208 251 274 1 34 48 94 101 95 240 284 213 96 66 89 105 132 148 133 141 139 127 119 124 124 122 127 128 131 133 135 141 146 152 155 158 160 161 163 163 164 165 166 166 166 168 168 167 167 168 169 168 166 164 162 164 164 161 158 158 161 165 170 170 167 167 171 171 161 153 153 157 162 151 129 124 124 113 106 110 113 110 105 119 137 133 118
213 240 253 272 272 276 274 277 305 109 231 328 43 355 59 50 43 86 160 178 297 7 66 43 56 103 125 132 133 137 135 127 125 127 121 120 124 124 129 133 137 143 150 155 158 161 161 161 161 163 166 166 168 167 166 167 168 169 169 170 169 166 165 165 166 167 166 164 162 160 161 165 172 173 173 174 174 177 171 161 157 162 166 147 131 131 130 121 114 115 119 118 108 115 130 131 119
210 218 249 269 260 262 266 283 348 95 276 42 42 354 40 68 346 345 340 57 61 52 61 50 55 89 105 117 127 131 131 127 128 127 120 119 121 121 127 135 141 146 154 158 163 166 162 162 162 164 167 168 169 168 168 167 168 169 168 167 166 164 164 166 168 169 168 166 164 163 163 166 173 176 178 180 178 180 177 169 164 166 165 148 139 140 138 130 122 118 120 122 117 117 124 125 115
212 195 224 246 249 248 264 282 112 148 23 56 68 350 16 56 335 351 2 10 85 77 69 67 63 80 96 112 125 131 131 129 131 130 124 124 126 126 131 140 144 149 157 160 167 170 167 166 165 166 168 171 171 169 168 166 166 167 165 164 164 163 163 165 169 170 169 168 167 165 165 168 173 178 181 186 185 180 176 173 170 168 160 153 148 146 147 141 132 127 122 123 127 126 128 125 113
213 203 219 229 240 249 271 301 80 113 42 27 81 71 15 18 344 354 352 351 91 91 80 85 81 93 102 113 125 133 135 133 135 134 132 133 134 137 139 146 148 152 160 162 167 172 172 170 168 168 169 171 170 168 166 164 164 164 163 163 162 161 161 164 167 168 169 169 172 167 166 171 175 180 183 186 185 178 174 174 175 172 159 155 154 151 155 150 142 138 130 124 127 130 134 130 116
212 205 237 238 238 261 282 307 62 64 46 20 29 51 343 345 2 348 333 352 99 117 121 115 110 117 121 126 132 138 140 138 139 138 138 137 139 146 147 150 154 161 164 165 170 174 177 175 171 170 169 170 169 166 164 163 163 163 164 164 162 160 159 160 162 164 168 170 173 169 170 174 177 182 180 174 176 179 177 175 182 184 171 165 161 156 161 159 153 149 140 129 123 123 123 117 111
205 199 231 255 274 283 289 329 58 56 58 35 343 349 327 333 80 343 321 345 103 145 153 139 134 133 128 129 135 139 140 142 145 143 141 140 140 144 148 152 158 165 168 169 173 176 179 178 173 170 169 169 170 167 163 162 162 163 165 164 162 160 158 159 160 163 166 170 171 172 176 177 181 183 173 168 176 180 178 178 191 197 187 179 175 170 168 166 163 155 147 139 130 124 121 118 121
218 223 229 245 265 270 281 7 63 76 69 39 316 312 304 334 72 318 303 305 261 159 143 128 130 134 130 132 133 135 141 145 150 148 142 141 140 139 144 152 158 165 171 174 176 178 179 178 174 170 168 170 172 170 165 162 162 163 163 163 163 162 162 163 164 165 164 167 171 175 180 178 182 183 174 174 180 180 180 186 197 202 193 190 190 183 175 173 171 161 151 144 136 132 130 148 174
225 249 239 238 241 251 274 333 65 87 72 34 309 292 312 15 4 295 284 284 158 126 123 113 118 125 125 130 131 136 147 148 157 146 127 119 127 141 148 154 161 166 171 177 178 178 178 178 175 170 170 172 173 172 167 164 164 166 164 164 166 166 167 167 168 167 163 166 172 176 183 181 179 181 178 178 181 181 186 190 191 193 192 194 196 194 184 176 176 172 160 151 141 138 129 148 186
222 252 251 252 249 254 266 273 96 88 83 252 292 323 332 2 332 288 289 304 102 114 113 107 109 110 114 120 128 143 149 154 160 130 118 121 135 149 152 156 165 168 170 176 178 177 177 179 176 173 174 174 173 172 169 169 169 170 170 171 173 173 173 173 171 168 164 170 176 177 182 183 177 179 180 178 180 184 187 187 182 183 188 189 192 195 186 177 183 181 165 157 155 151 147 158 191
219 246 252 261 266 266 266 261 211 130 178 250 276 292 286 263 259 262 279 311 103 115 111 111 113 108 113 121 128 141 143 150 142 119 126 142 147 150 152 158 163 166 171 174 174 174 177 181 179 177 177 176 174 173 172 172 172 174 176 178 180 180 180 178 173 170 169 174 180 179 178 177 176 179 179 177 180 185 187 186 182 179 178 178 182 183 175 174 183 180 169 168 168 172 190 201 218
205 228 241 247 259 267 270 272 257 154 168 214 241 255 251 239 240 252 267 289 106 112 107 112 115 110 115 120 121 131 139 141 131 124 136 145 147 151 154 159 161 165 172 172 173 173 178 183 180 180 179 177 176 174 174 173 172 176 181 185 185 183 183 179 174 172 174 179 182 180 176 171 173 179 179 179 179 178 184 190 193 198 196 178 175 177 176 180 181 180 185 184 179 187 199 203 207
209 221 243 249 258 266 268 274 243 180 193 209 226 257 260 247 221 230 251 193 118 114 112 114 111 109 108 108 103 94 121 139 140 133 133 141 150 152 151 155 160 164 168 173 180 177 179 183 181 182 180 178 177 176 176 174 176 180 182 186 186 184 182 178 176 175 178 183 182 180 177 171 171 175 177 179 178 176 186 195 194 202 205 192 186 194 195 201 195 186 184 177 177 178 170 167 175
281 262 261 257 268 286 289 300 275 207 185 203 226 258 267 267 234 228 242 179 129 125 125 124 119 116 109 105 98 70 81 119 134 132 129 140 150 150 149 153 156 161 168 179 186 182 181 182 181 182 180 179 180 181 180 178 182 183 181 185 185 183 182 181 181 180 182 184 182 181 181 178 175 174 172 176 181 182 190 196 182 165 175 180 187 203 200 203 201 192 184 170 168 167 152 141 152
290 285 285 271 290 288 269 271 264 243 178 190 207 268 264 248 237 236 244 181 137 134 131 128 120 116 111 112 114 98 84 84 107 137 141 145 149 151 153 157 157 161 173 185 186 186 183 179 179 180 181 183 182 187 187 181 185 187 181 180 180 180 180 182 184 184 186 184 181 183 185 184 182 179 176 175 178 182 187 193 183 164 166 172 177 194 193 199 200 190 183 161 154 167 141 128 143
272 270 272 292 321 271 243 228 235 231 210 183 165 264 263 239 234 235 238 183 140 136 132 129 119 116 121 122 121 112 110 111 350 141 139 143 148 150 150 157 163 165 174 180 180 184 182 176 178 181 184 185 183 191 194 185 188 190 177 168 170 178 180 185 186 184 185 182 180 184 186 186 186 185 184 180 176 178 179 180 178 169 170 172 178 196 192 196 201 195 188 153 157 181 135 125 148
277 283 269 248 279 263 237 211 218 216 205 152 144 232 255 255 252 241 235 189 142 134 133 130 124 122 125 128 126 128 143 142 104 107 125 134 140 145 143 149 162 166 169 173 175 180 179 177 181 184 185 184 185 193 194 189 193 194 177 162 164 176 183 187 186 183 182 182 182 183 185 186 183 179 179 180 173 172 169 162 165 164 164 164 168 191 196 195 196 199 195 154 167 185 132 134 148
240 245 275 222 208 255 251 223 212 201 184 138 136 233 257 254 254 246 236 197 135 129 133 129 129 131 136 143 136 138 147 121 103 106 117 124 129 137 140 143 155 162 166 169 172 176 178 180 183 187 186 184 188 190 189 193 201 200 179 166 169 177 184 185 183 183 184 186 186 185 185 185 181 172 166 165 164 165 162 157 162 165 167 162 162 179 192 197 194 207 206 159 172 182 143 146 149
216 183 237 234 219 251 263 237 207 191 176 143 141 238 273 259 262 261 228 165 128 132 140 136 137 139 147 151 140 136 129 114 111 116 119 121 123 126 133 144 152 155 163 168 170 175 180 181 183 188 188 188 189 187 192 197 199 193 167 166 173 174 180 182 181 187 189 189 187 186 185 181 180 175 164 158 159 164 164 163 163 162 163 162 169 184 192 197 193 208 213 154 166 173 154 153 148
232 202 220 243 241 249 262 226 189 179 167 152 157 211 258 262 280 296 150 131 129 144 148 146 146 144 150 145 133 132 127 126 129 126 121 120 123 123 130 142 147 150 162 171 174 179 180 180 184 188 186 188 188 189 196 195 189 168 149 165 178 173 180 186 188 193 193 192 191 189 184 177 177 179 175 171 173 174 171 170 165 162 163 166 176 184 189 192 191 193 177 138 158 164 156 152 145
215 201 203 242 251 252 239 183 174 176 162 151 161 207 250 262 281 305 126 131 135 150 151 147 147 142 144 139 134 129 128 138 135 125 121 121 126 127 128 134 140 155 165 166 168 174 180 183 188 188 181 186 192 192 193 186 174 135 137 166 179 174 184 190 193 194 188 190 193 193 187 183 185 187 187 187 189 185 178 173 170 172 175 176 179 177 179 186 189 183 156 138 155 158 155 148 143
241 224 209 235 254 260 225 172 177 175 153 150 166 204 245 267 285 288 231 158 138 145 147 141 144 144 145 151 155 139 134 144 128 120 121 121 120 118 124 131 144 160 157 144 143 162 185 189 190 189 185 192 195 191 188 183 167 124 126 169 184 179 180 182 188 190 184 186 190 191 191 192 193 193 190 189 190 185 180 178 178 181 181 179 179 178 180 180 182 172 147 148 150 147 152 145 139
271 282 285 276 269 280 244 156 171 153 128 189 187 192 247 277 293 296 287 148 128 136 140 143 148 148 151 161 164 142 138 138 115 111 115 117 116 121 133 144 157 159 146 143 149 165 186 192 192 190 191 197 197 190 184 183 176 154 151 176 185 184 180 178 180 181 187 193 191 191 194 194 193 192 188 188 187 181 181 183 184 187 180 177 180 182 186 177 172 160 150 167 152 138 147 148 143
281 285 294 305 305 296 262 149 166 125 114 200 166 98 292 290 292 295 310 76 132 142 146 153 158 161 164 165 166 150 134 126 110 106 112 117 121 132 142 152 163 159 155 164 165 169 182 192 197 195 197 202 201 195 185 180 185 181 178 181 183 187 187 183 175 175 189 196 192 191 193 192 189 188 188 190 186 180 183 185 188 192 181 179 182 182 188 179 172 160 154 177 156 137 147 156 155
271 277 285 302 304 306 313 136 138 109 117 201 123 102 273 278 278 286 292 253 175 159 159 162 163 166 169 169 167 154 138 137 128 113 116 122 128 138 145 155 166 164 168 173 164 169 182 190 198 198 201 204 202 200 190 182 188 191 189 184 183 192 196 190 177 182 193 192 191 194 192 190 188 186 187 189 185 182 186 186 188 191 182 183 185 181 185 180 176 164 160 181 164 140 147 160 164
245 248 255 273 278 292 305 328 127 144 169 156 131 160 266 297 304 301 295 280 224 168 167 167 167 169 173 176 171 161 157 154 144 128 126 130 135 143 149 159 168 165 178 179 162 172 186 188 195 198 200 203 202 200 191 188 194 197 197 188 188 196 196 187 179 187 192 187 192 197 193 191 188 184 182 185 186 185 188 190 190 190 183 185 188 181 176 175 171 162 169 189 170 147 148 159 172
244 233 198 250 281 290 292 305 95 143 314 113 120 69 322 291 281 289 290 286 273 190 174 168 171 177 174 174 177 171 165 163 156 144 141 141 145 154 157 164 170 169 187 191 171 177 187 186 193 197 197 198 198 194 189 192 199 200 194 183 187 192 186 177 174 181 188 188 192 195 195 193 187 184 183 185 187 187 191 195 191 187 184 184 186 178 167 168 169 166 177 188 172 162 157 154 162
273 239 190 243 279 299 307 321 8 23 326 317 101 60 304 267 238 256 268 270 268 241 207 187 177 180 177 173 180 179 167 167 162 150 149 151 155 162 166 169 170 173 190 194 181 181 185 186 193 196 194 192 192 192 191 192 193 192 186 174 175 179 177 177 177 181 188 188 187 189 191 190 186 185 187 185 187 191 194 194 190 187 187 181 179 177 167 165 170 173 182 183 174 172 166 156 156
68 235 217 227 254 285 295 303 331 81 256 288 94 118 270 293 261 245 242 248 258 258 241 215 178 171 179 181 176 170 171 172 154 142 148 155 159 167 176 175 170 177 188 190 191 190 184 186 194 194 191 188 188 190 192 190 185 185 185 177 172 173 177 183 184 186 188 186 184 183 184 185 185 187 188 187 190 197 197 193 190 187 184 176 171 175 174 172 173 176 184 183 178 176 172 163 160
185 246 249 237 229 250 261 265 267 220 219 320 46 148 249 290 271 256 245 245 259 273 265 248 209 175 173 176 172 167 174 168 135 134 152 161 168 175 182 178 173 180 184 185 195 199 189 188 193 192 189 185 185 185 187 190 186 184 185 180 174 176 180 183 186 189 189 186 182 180 181 184 185 187 188 188 192 197 197 193 191 185 180 175 174 180 178 175 178 182 185 183 181 179 180 175 166
197 214 243 251 227 231 248 257 265 246 197 328 334 327 296 274 271 281 273 261 316 351 329 341 16 135 158 162 158 146 146 134 120 135 157 168 179 185 186 180 178 183 184 184 192 198 196 191 190 188 186 183 183 183 184 188 187 185 185 182 180 184 185 181 185 188 187 185 180 178 181 184 186 187 187 189 192 193 192 191 189 180 175 176 180 183 179 176 182 187 187 184 184 180 181 183 175
198 203 234 264 255 230 188 43 319 346 61 255 255 209 266 280 290 297 282 282 78 75 37 36 54 71 109 125 111 113 126 125 126 139 161 179 186 192 192 185 184 187 188 190 191 194 195 192 188 185 185 185 183 183 186 187 187 186 186 185 180 183 185 179 179 183 185 186 181 177 180 183 184 185 184 184 183 179 176 182 183 179 177 177 180 182 180 179 179 185 188 188 191 186 177 177 176
207 209 228 265 274 259 76 59 29 15 319 243 235 205 205 263 301 349 23 328 284 109 77 51 60 73 89 104 114 134 148 145 139 143 164 181 187 193 194 192 192 192 194 198 196 193 191 189 187 183 184 186 184 186 188 186 186 185 187 187 178 176 180 177 174 176 181 185 183 179 180 183 181 177 175 172 170 163 158 171 176 174 175 173 176 182 182 180 177 180 188 189 190 189 178 169 167
212 202 196 221 295 335 12 1 41 336 263 251 263 261 232 234 268 344 23 26 31 66 87 84 73 71 82 98 119 132 128 137 145 145 154 166 184 199 200 198 199 197 200 205 202 195 192 193 189 179 177 181 182 185 186 184 185 184 186 186 179 176 179 178 174 173 177 180 180 178 178 180 178 172 166 162 163 156 147 157 162 162 166 168 174 178 177 181 184 185 190 191 187 184 178 171 166
201 193 152 121 325 6 40 317 335 228 246 227 232 251 248 226 234 321 20 30 40 49 67 81 80 85 90 78 70 66 54 57 67 63 59 50 16 317 287 260 234 218 217 218 212 198 189 195 193 175 166 171 178 184 183 181 183 183 185 184 181 179 178 178 175 174 177 178 176 175 173 173 170 164 159 158 160 154 145 148 155 161 167 169 168 167 171 177 176 174 175 177 179 177 173 173 172
162 175 139 129 159 134 195 238 228 225 241 224 205 214 241 247 272 331 32 34 38 53 56 61 65 75 85 66 45 43 46 47 46 46 44 40 34 17 356 340 330 323 326 324 302 272 195 198 198 171 155 165 178 186 185 182 182 182 184 184 184 183 178 175 177 176 176 177 174 171 169 165 159 155 155 156 156 154 151 152 155 157 161 166 164 161 173 175 164 160 164 166 172 175 175 179 179
167 179 148 149 164 162 202 208 196 216 252 263 182 143 182 170 247 292 46 47 37 48 49 50 53 54 58 49 39 39 40 42 45 55 59 68 70 51 27 10 358 343 344 345 337 337 316 210 195 174 165 175 183 186 184 184 180 173 180 185 184 185 179 173 177 177 173 172 169 164 162 158 153 153 155 152 149 151 152 155 162 160 154 158 157 152 166 174 167 161 166 172 174 173 176 183 185
210 181 155 181 187 170 209 219 190 163 81 331 16 79 260 164 242 296 58 56 40 44 43 45 48 48 52 42 35 38 38 42 42 46 50 49 55 52 50 54 48 29 7 335 314 314 298 255 206 195 193 179 172 174 173 174 170 161 174 187 182 181 178 172 174 175 169 165 164 160 158 157 156 156 154 151 150 153 149 149 160 167 163 159 157 155 157 163 167 169 172 180 179 175 178 185 185
233 199 183 207 198 163 182 253 237 113 97 269 170 103 326 9 341 343 57 58 39 38 37 40 42 42 45 40 37 41 43 50 49 44 39 28 33 34 40 68 90 92 83 86 18 309 275 248 186 186 174 159 160 168 169 166 163 159 166 185 187 183 181 177 174 170 165 165 166 165 163 162 160 157 154 153 154 154 151 150 156 165 171 168 162 162 155 151 164 172 172 173 170 168 172 171 165
225 236 207 200 203 190 163 227 298 79 120 258 161 142 227 126 310 323 54 65 40 33 34 37 38 39 42 39 42 48 50 55 53 50 43 28 23 26 39 66 97 107 101 101 87 43 154 151 143 132 130 146 158 159 158 158 160 162 163 177 188 188 186 182 173 166 166 169 169 169 167 164 161 156 150 150 152 154 156 159 160 160 165 165 160 159 155 147 151 154 152 155 155 154 155 152 148
215 240 234 182 168 211 206 178 231 124 147 269 151 124 80 82 249 323 31 69 53 38 39 44 43 45 49 43 45 53 54 52 50 45 39 29 16 23 50 74 83 93 102 108 101 77 76 119 146 144 138 146 149 139 144 155 161 165 165 173 184 187 186 183 174 169 170 164 159 159 159 156 156 153 148 146 150 155 156 159 160 156 157 160 158 158 156 147 143 146 146 146 148 147 150 152 150
235 266 274 210 147 172 199 191 183 149 157 232 107 86 33 254 222 354 22 60 67 56 53 57 54 53 52 45 45 49 51 51 47 40 35 37 31 26 44 67 73 90 105 109 105 95 82 86 121 143 142 140 144 149 158 163 164 167 169 173 177 178 178 178 171 167 165 159 152 150 150 149 150 150 149 149 151 154 154 154 154 156 157 156 152 155 156 150 146 149 150 151 151 148 153 160 158
217 257 269 266 187 147 134 244 192 147 149 180 127 80 273 243 105 67 50 63 82 83 72 64 64 63 52 42 48 49 48 52 48 45 37 34 44 40 35 41 55 78 91 95 102 107 113 113 113 131 139 139 145 159 170 172 169 170 174 176 173 170 168 164 158 157 156 154 151 149 148 147 147 150 153 154 154 155 154 152 154 157 157 152 150 151 150 150 149 150 153 158 161 161 160 165 166
173 193 215 219 213 131 106 293 269 146 126 157 143 166 264 267 96 104 73 47 80 90 85 74 67 70 62 45 51 50 44 46 46 48 44 29 33 41 40 37 44 57 67 77 92 106 121 131 123 115 125 137 151 164 173 176 174 175 178 175 169 166 164 158 152 151 151 151 151 152 152 152 151 154 157 158 157 155 152 152 155 157 154 153 152 146 146 154 159 159 161 165 176 176 169 168 168
Height
777 779 778 780 779 780 782 781 795 792 792 804 793 788 772 751 750 749 749 742 742 739 730 731 728 728 735 742 747 753 756 759 764 770 778 766 754 757 757 760 762 765 771 775 779 782 783 785 786 788 790 792 794 795 796 797 798 798 799 800 801 802 802 804 805 806 808 809 811 811 813 814 816 817 818 819 820 822 823 824 825 826 827 828 828 829 829 830 830 830 831 832 832 832 832 832 832
777 779 778 780 779 783 783 779 798 798 798 807 789 780 765 748 752 755 752 746 746 738 728 728 728 729 730 733 737 750 758 754 753 756 759 756 758 762 761 764 765 768 773 778 782 784 786 787 789 790 792 794 795 796 798 798 799 799 800 801 802 803 804 805 806 808 809 811 812 813 814 815 817 818 819 821 822 823 824 825 826 827 828 829 830 830 831 831 831 832 832 832 833 833 833 833 833
777 779 778 781 780 781 782 782 799 801 803 806 786 768 755 753 756 752 747 742 739 730 729 728 730 731 732 740 743 755 765 754 749 751 754 756 761 766 767 768 769 773 777 781 785 787 789 789 791 792 793 795 796 797 798 799 800 801 802 803 804 805 806 807 809 810 811 812 813 814 815 816 818 819 821 822 823 825 826 826 827 828 829 830 831 831 832 833 833 833 834 834 834 834 835 835 835
777 778 778 780 782 783 786 790 795 799 804 798 784 762 750 755 752 746 740 736 732 729 732 732 736 732 735 753 751 755 763 755 751 752 757 763 768 772 771 772 776 779 781 785 787 788 790 791 792 793 794 796 797 798 799 800 801 803 804 806 807 808 809 809 810 811 812 813 814 815 816 817 818 820 821 823 824 825 827 827 828 829 830 831 831 832 833 834 835 835 835 835 836 836 836 836 836
777 778 778 780 786 785 786 789 787 793 796 787 779 763 752 752 746 743 735 732 730 730 732 734 742 734 737 751 750 759 762 755 755 753 763 774 777 777 776 779 784 786 787 786 788 789 791 792 793 794 795 796 797 799 800 802 803 805 807 808 809 809 810 811 811 812 813 814 815 816 817 818 819 820 822 824 825 826 828 828 829 830 831 832 832 833 834 835 836 836 837 837 837 837 837 837 837
777 778 777 779 782 778 786 794 789 788 778 770 771 761 752 746 742 740 734 732 728 729 730 734 741 741 749 750 747 755 754 753 758 759 765 775 777 776 779 781 783 787 787 785 786 787 789 790 791 793 794 796 798 800 802 804 805 807 808 809 810 810 811 812 812 813 814 815 816 817 818 819 820 821 823 825 826 827 828 829 830 831 832 833 833 835 835 837 837 837 838 838 838 838 838 838 838
777 779 778 782 781 778 792 798 791 787 767 758 762 756 750 743 739 738 738 738 734 731 730 733 733 745 760 752 753 755 749 751 758 764 764 768 770 768 772 773 775 778 779 780 782 783 786 788 789 792 793 796 798 800 803 804 806 807 808 809 810 811 812 813 813 814 815 816 817 818 819 820 821 822 824 825 826 828 829 830 831 832 833 834 835 836 836 837 838 838 839 839 839 839 839 840 839
777 781 778 785 789 784 793 793 786 781 763 752 752 748 745 741 737 739 742 742 741 736 734 733 728 749 763 752 763 763 754 757 759 764 763 765 766 765 768 767 768 771 773 775 779 783 785 788 790 792 794 797 798 801 803 805 806 807 809 810 811 812 813 814 815 816 816 817 818 820 821 821 822 823 825 826 827 828 829 831 831 833 834 835 836 836 837 838 838 839 840 840 840 840 840 840 841
777 781 780 785 791 789 789 787 780 771 759 751 748 744 741 738 737 740 743 742 740 737 736 733 729 753 765 758 768 764 761 763 760 762 763 765 766 769 771 769 769 773 776 775 779 785 788 791 792 794 795 797 800 802 804 805 807 808 809 810 811 813 814 815 816 817 817 819 820 820 821 822 823 824 825 826 827 828 830 831 832 833 834 835 836 837 838 839 839 840 840 841 841 841 841 841 841
778 779 781 785 789 794 792 785 775 764 756 749 746 742 739 737 736 739 742 743 739 737 735 729 735 754 763 766 770 766 766 764 760 764 764 765 766 769 771 771 772 772 776 778 780 783 787 790 790 793 795 797 799 802 804 805 807 808 809 811 812 813 814 816 816 818 818 819 820 821 822 823 824 825 826 826 828 829 830 831 832 834 835 836 837 838 839 839 840 840 841 841 842 841 841 842 843
782 777 778 788 793 797 794 784 773 761 752 747 745 739 735 734 735 738 740 742 737 738 734 729 745 756 760 769 772 769 767 763 762 766 765 765 765 767 769 772 774 773 773 775 777 779 782 786 788 790 792 795 797 799 803 804 806 808 809 811 813 814 814 815 816 818 819 820 821 822 823 824 825 825 826 827 828 829 831 832 833 834 835 836 837 838 839 840 841 841 842 842 842 842 842 843 844
785 780 779 792 794 792 786 779 771 760 752 750 749 738 732 731 736 741 742 744 739 741 737 734 746 751 763 774 772 769 765 766 766 766 766 765 766 767 770 773 775 775 773 773 774 775 778 782 785 787 790 793 794 798 801 803 805 807 810 811 813 814 814 815 816 818 819 820 822 823 824 825 826 826 827 828 829 830 831 832 833 835 836 837 838 839 840 840 841 842 843 843 843 843 844 844 845
783 780 782 790 784 781 779 774 766 760 758 753 749 738 731 734 739 740 741 744 740 745 743 737 740 745 766 774 770 770 768 770 769 768 767 766 767 769 772 774 775 777 776 775 774 774 776 778 781 784 787 789 792 795 798 801 803 805 807 809 811 813 814 815 816 817 819 820 822 823 825 826 827 827 828 829 830 831 832 833 834 835 836 837 838 839 840 841 842 843 843 844 844 844 845 846 846
776 774 780 786 777 775 774 770 763 764 764 751 743 736 732 735 737 736 739 746 744 745 743 734 735 748 767 772 773 773 770 772 770 769 768 767 769 770 773 774 776 778 778 779 777 776 775 777 778 780 782 784 787 790 794 797 799 801 804 806 809 811 812 814 815 817 818 820 822 824 825 826 827 828 829 830 831 832 833 834 834 836 836 837 838 840 841 842 843 843 844 845 845 845 846 847 847
770 770 775 782 779 776 771 767 763 764 763 748 741 735 734 735 732 736 739 746 744 734 734 733 732 749 764 768 775 772 769 771 769 770 769 770 771 772 775 775 777 778 780 781 781 780 779 780 779 779 779 780 782 785 788 792 796 798 801 804 806 809 811 813 815 816 818 820 822 824 826 827 828 829 830 831 832 833 834 834 835 836 837 838 839 840 841 842 843 844 845 846 846 846 847 848 848
763 767 775 782 782 780 771 763 760 764 760 747 740 734 739 739 730 737 735 734 740 731 734 740 735 745 754 758 765 765 767 769 769 771 770 772 773 774 776 776 778 779 781 783 783 784 784 785 785 785 784 784 785 784 785 786 790 794 797 801 804 807 810 812 814 816 818 820 822 824 826 828 829 830 831 832 832 833 834 835 836 837 838 839 839 840 841 842 844 845 845 846 847 847 848 848 849
759 768 780 785 783 781 770 761 760 762 757 747 742 737 744 745 733 733 727 727 740 741 742 745 740 743 749 753 758 761 765 767 768 771 771 773 774 776 778 778 779 780 782 783 784 785 786 788 787 788 789 790 791 790 790 788 789 791 794 798 802 806 809 812 814 816 818 820 823 824 827 828 829 830 831 832 833 834 835 836 837 837 838 839 840 841 842 843 844 845 846 847 848 848 849 849 850
763 772 781 785 782 776 763 756 755 754 753 749 744 740 744 748 741 733 731 736 744 749 750 749 747 748 751 754 757 760 763 765 767 769 771 774 775 777 779 779 780 781 782 783 784 786 787 788 788 789 790 791 793 794 795 794 795 795 796 798 801 805 808 811 813 816 819 821 823 825 827 828 830 831 832 833 833 834 835 836 837 838 839 840 840 841 842 843 844 845 846 847 848 849 850 850 851
764 771 777 779 773 764 753 750 749 749 751 748 745 743 743 746 743 736 740 747 749 756 758 755 756 757 758 758 760 762 762 764 766 768 771 774 775 776 778 780 781 781 782 783 784 785 786 788 788 789 791 793 794 795 796 797 799 800 801 801 802 805 807 810 812 815 818 821 823 825 827 828 830 831 832 833 833 835 835 836 837 838 839 840 841 841 842 843 844 845 846 848 849 850 850 851 851
761 767 776 772 762 757 750 747 746 745 747 748 748 745 744 743 741 739 744 750 753 759 759 758 762 762 761 761 762 763 763 764 766 768 771 773 775 776 777 779 780 780 781 782 783 784 786 787 789 790 792 794 795 796 797 799 800 802 803 803 804 805 806 809 811 814 817 820 822 825 827 828 830 831 832 833 834 835 835 837 837 838 839 840 841 842 843 843 844 846 847 848 849 850 851 851 852
759 762 771 764 757 758 751 744 744 743 745 748 749 748 748 743 739 741 744 752 758 757 751 752 758 759 760 761 761 763 764 765 766 768 770 773 775 777 778 779 780 780 781 782 783 784 785 787 789 791 793 795 796 797 798 800 801 802 804 805 805 805 806 807 808 811 814 817 821 824 826 828 830 831 833 833 834 835 836 837 837 838 839 840 841 842 843 844 845 846 847 848 849 850 851 851 852
758 758 759 756 755 758 749 741 742 742 744 748 750 751 749 742 742 744 745 754 756 751 746 745 750 753 756 758 760 762 763 765 766 767 769 772 775 777 780 781 781 782 782 782 783 784 785 787 789 791 793 795 797 798 799 801 802 803 804 805 806 805 805 806 807 809 811 815 819 823 825 828 829 831 832 833 834 835 836 837 837 838 839 840 841 842 843 844 845 846 847 848 850 850 851 851 852
759 757 753 751 751 752 745 741 742 741 745 750 751 749 746 746 749 745 744 749 746 742 742 743 746 749 751 755 758 762 763 765 765 766 770 774 778 780 781 782 782 782 783 783 783 784 785 787 789 791 793 795 796 798 799 801 802 803 803 805 805 805 805 806 807 810 811 814 818 821 824 827 829 830 832 833 834 835 836 837 838 838 839 840 841 842 843 843 845 846 847 848 850 850 851 851 852
756 757 751 748 746 746 742 740 742 741 745 747 746 747 748 752 752 746 744 744 741 740 740 742 746 747 751 755 758 761 762 764 765 767 772 776 779 781 782 782 783 783 784 784 784 785 786 787 789 791 792 794 795 797 799 800 801 802 802 804 804 804 805 805 807 809 811 813 817 821 823 826 828 829 831 832 834 835 836 837 838 839 839 840 841 842 842 843 844 845 847 848 849 850 851 851 852
753 754 749 746 744 743 739 738 740 740 742 742 744 749 750 749 748 748 746 742 741 741 740 743 746 749 753 756 758 760 762 764 765 768 772 775 776 779 781 782 782 784 784 784 785 786 787 788 789 790 791 793 794 796 797 799 800 801 802 803 803 804 805 805 807 808 810 813 816 820 823 825 827 829 830 831 833 834 836 837 839 840 840 841 842 842 842 843 845 845 847 848 849 850 850 851 851
749 748 746 744 744 740 738 738 738 740 741 742 747 751 749 744 745 749 744 740 743 742 743 745 747 751 754 757 759 760 762 763 765 767 770 773 775 777 779 781 781 783 784 784 785 786 787 788 789 791 792 794 795 796 797 799 800 801 802 803 804 805 806 806 807 809 810 812 816 820 823 825 827 828 829 830 831 833 835 837 839 840 841 842 843 843 843 844 845 846 847 848 849 850 850 850 851
742 742 743 742 742 739 738 739 738 739 740 742 749 752 748 741 747 754 743 738 742 743 747 747 748 753 755 757 759 760 762 763 764 767 769 772 775 777 778 780 781 781 783 784 785 786 787 789 790 791 793 795 796 797 798 800 800 801 802 803 804 805 807 808 808 809 811 813 816 820 822 824 826 827 828 829 830 832 834 836 838 839 841 842 843 844 844 845 845 846 847 848 849 849 850 850 851
739 741 744 742 740 739 738 740 740 740 742 741 744 750 748 744 749 751 741 737 741 743 748 747 748 753 755 758 759 760 762 763 764 766 770 772 774 775 777 778 779 780 782 783 784 786 787 789 791 793 794 796 798 799 799 800 801 802 802 802 804 805 807 809 810 810 812 814 817 820 822 823 825 826 827 828 829 831 832 834 836 837 839 841 843 844 845 845 846 846 847 848 849 849 849 850 850
739 741 749 748 743 744 741 740 740 741 744 738 742 755 755 750 749 743 736 737 740 742 747 747 749 754 756 758 759 761 762 763 765 766 768 770 772 773 775 776 778 780 781 783 784 785 788 789 792 793 794 797 799 800 800 800 801 803 803 802 805 807 808 809 810 811 813 815 817 819 821 822 823 824 825 826 828 829 830 833 835 835 837 839 841 844 845 845 845 846 847 848 848 848 849 849 850
742 742 750 752 753 751 741 739 740 741 742 734 745 767 763 750 744 738 733 735 740 744 747 748 750 754 757 758 759 761 762 763 764 766 768 769 771 772 773 776 778 780 782 783 785 786 789 790 792 793 794 797 798 801 802 801 802 804 804 804 806 807 808 809 810 812 813 815 817 818 820 821 823 824 824 826 827 828 830 832 833 835 836 838 841 844 845 845 845 845 846 847 848 848 848 849 850
746 749 751 755 764 757 739 738 740 742 740 732 747 768 762 749 742 735 731 732 739 745 748 748 750 753 757 758 760 761 761 763 764 766 768 769 771 772 774 776 778 781 782 784 787 788 790 791 792 793 795 797 799 802 803 803 804 805 805 806 808 809 809 809 810 812 813 814 816 817 818 820 822 823 824 825 826 827 829 831 833 834 836 839 841 844 845 845 845 845 845 847 849 848 848 849 850
749 760 763 759 764 756 739 736 736 740 740 733 747 763 759 748 741 733 729 731 737 745 749 748 750 753 756 758 758 761 761 762 765 767 768 770 772 773 775 778 780 782 784 786 788 789 791 791 792 794 796 798 801 803 804 804 805 806 807 808 809 810 810 810 811 812 813 814 815 816 818 819 821 822 823 824 825 826 828 831 833 834 837 840 842 843 845 844 844 844 845 846 848 848 848 849 850
752 760 768 762 761 757 747 736 729 733 739 739 746 757 756 746 737 729 723 729 738 745 749 749 751 753 755 757 756 758 761 763 766 766 767 769 772 774 777 779 782 784 785 786 788 789 791 793 794 795 797 800 803 805 805 805 807 809 810 810 810 810 810 810 810 811 812 813 814 815 817 818 820 821 822 823 824 826 828 830 833 835 837 839 841 842 843 843 842 843 845 846 848 848 848 849 850
760 758 763 760 756 756 751 740 729 730 738 743 745 750 751 742 734 728 721 727 738 744 747 749 750 753 754 755 756 757 759 763 765 765 766 769 771 775 778 780 783 784 785 785 787 789 793 795 797 797 799 802 803 804 804 805 809 811 812 813 812 811 810 810 810 811 812 813 813 815 816 818 819 820 821 822 823 825 827 830 832 834 837 838 839 840 842 842 841 842 845 848 849 848 848 848 850
764 761 762 760 753 751 750 741 732 731 738 744 748 751 748 740 735 730 724 725 737 744 745 748 749 752 755 755 756 757 758 761 763 763 765 768 771 776 780 782 783 782 781 783 787 791 796 798 799 800 802 802 801 800 802 806 810 812 813 814 813 811 810 809 809 810 811 812 813 814 816 817 818 819 820 821 823 825 826 829 831 833 835 837 838 839 841 841 842 843 845 850 853 849 848 848 849
756 755 756 758 754 748 741 736 730 729 738 743 747 751 747 742 737 733 729 726 734 743 745 748 751 753 755 756 756 756 758 760 761 762 765 769 772 776 781 783 782 781 780 782 787 792 796 797 799 800 801 799 797 798 801 806 810 812 812 813 811 809 809 808 809 809 810 812 813 814 815 816 817 818 819 820 822 824 826 828 830 832 834 835 837 838 840 841 842 843 844 851 854 850 848 848 849
750 751 753 753 753 748 734 731 728 726 740 746 742 745 745 742 737 733 733 730 735 744 748 750 752 753 754 755 756 757 759 760 760 762 766 769 772 776 780 781 781 781 781 781 780 785 790 793 796 799 799 798 796 797 800 804 807 808 808 808 807 805 805 806 807 809 810 810 811 812 813 814 816 817 819 820 821 823 825 828 829 831 832 834 835 836 838 840 841 842 844 851 854 848 847 848 849
750 754 756 753 755 750 733 730 730 725 739 747 741 744 744 740 737 732 732 735 739 744 749 752 752 752 753 753 755 756 759 761 761 763 767 770 772 775 778 779 779 778 778 776 774 779 786 789 792 795 796 797 796 797 798 802 803 803 803 803 803 802 802 804 806 807 807 807 809 811 812 813 815 816 818 819 821 822 824 827 829 830 831 833 834 835 837 839 841 842 842 849 851 847 847 848 849
752 753 756 757 754 749 738 731 730 728 738 747 743 745 747 741 737 734 731 733 737 739 742 746 748 751 752 752 753 755 759 761 762 765 767 770 771 773 776 778 778 776 776 774 773 779 785 787 789 791 793 794 795 797 798 800 802 802 803 803 803 802 803 805 806 805 805 806 808 809 811 812 814 815 817 818 820 821 823 826 828 829 830 832 833 835 836 838 840 840 841 846 848 846 848 848 849
752 752 756 759 751 752 752 741 734 732 737 744 744 746 747 742 739 737 733 730 731 735 737 739 742 746 748 747 748 751 756 759 762 765 767 768 770 771 773 776 778 777 778 774 770 775 781 783 786 787 789 791 794 797 799 801 803 803 804 803 803 803 804 805 806 805 805 806 807 808 809 811 813 814 816 817 819 821 823 825 827 829 830 831 832 834 835 836 838 838 840 844 845 845 847 848 849
751 749 753 756 750 749 750 743 739 738 738 739 743 754 754 745 744 742 734 731 730 731 736 740 741 741 742 744 744 745 748 753 758 762 765 765 767 768 769 772 774 775 777 772 764 767 774 778 781 784 787 790 792 795 797 799 801 803 803 802 803 803 803 804 804 804 804 805 806 806 808 810 812 813 815 816 818 820 822 825 827 828 829 830 831 833 834 836 837 838 840 843 843 844 845 846 848
753 748 746 748 749 747 745 743 747 754 755 742 743 768 770 748 746 745 736 735 733 730 732 736 740 741 742 744 744 745 747 749 752 757 760 761 763 765 767 769 771 772 774 770 764 764 768 773 777 782 786 788 790 793 795 796 798 800 801 801 801 801 802 802 802 802 802 803 804 805 807 809 811 813 814 816 817 819 822 824 826 827 828 829 830 832 834 835 837 838 840 842 842 843 844 845 846
757 748 741 743 746 748 746 745 752 764 764 746 742 769 777 758 749 745 738 738 735 732 730 729 733 739 740 741 742 746 749 750 753 757 759 759 760 762 765 767 769 770 770 768 767 766 766 769 773 779 784 787 788 790 792 795 796 798 799 800 800 800 800 800 801 801 801 802 803 805 807 809 811 812 813 815 817 819 821 823 824 826 827 828 830 832 833 835 837 838 839 841 842 843 843 844 845
756 744 739 744 746 747 746 746 755 758 753 749 745 756 772 769 753 740 738 742 740 737 734 729 728 732 734 737 739 743 746 749 755 760 760 760 760 760 761 765 766 767 767 766 767 768 767 767 771 776 782 785 786 788 790 793 795 797 799 800 801 801 800 801 802 802 803 803 804 806 807 809 810 812 813 815 816 818 820 822 824 825 826 828 829 831 833 835 836 837 839 840 841 842 842 843 844
748 738 738 743 743 745 744 748 755 750 752 764 755 749 770 773 751 737 736 741 746 747 743 736 731 731 733 737 739 743 747 750 755 760 760 760 759 759 759 762 764 765 765 763 763 767 769 768 769 774 779 783 784 786 788 792 794 796 798 800 802 803 802 802 803 803 804 804 805 807 808 809 810 812 814 815 817 818 820 822 823 825 826 828 829 831 833 834 836 837 838 839 840 841 842 843 843
737 734 738 740 740 742 745 751 756 754 763 776 762 752 772 776 754 745 744 744 749 751 747 741 735 735 737 739 743 747 750 752 755 758 758 757 756 757 758 760 762 762 762 761 761 766 770 770 769 771 776 780 783 785 788 791 793 795 796 798 800 802 804 804 804 804 804 804 806 808 809 810 811 812 814 815 817 818 820 822 823 825 826 828 829 831 833 834 835 837 838 839 840 841 842 843 843
731 735 740 743 743 742 746 750 753 766 778 776 761 753 767 777 763 754 754 750 748 748 747 745 741 740 742 743 745 748 749 750 753 756 756 756 756 756 758 759 760 761 761 760 761 765 770 772 770 770 774 779 783 785 787 790 792 794 795 796 798 800 803 804 805 805 805 805 806 807 809 810 811 813 814 816 817 818 820 822 824 825 826 828 830 831 832 834 835 836 838 839 840 841 842 843 843
732 738 743 752 756 751 756 758 759 780 788 771 758 752 761 778 773 760 756 750 746 746 748 749 747 746 747 747 748 749 751 752 752 755 756 757 759 759 759 760 760 760 760 760 763 767 771 774 774 772 773 778 783 785 787 789 791 793 794 795 796 798 800 803 804 805 805 805 806 808 809 811 812 813 814 815 817 818 820 822 824 825 826 828 829 831 832 834 835 836 838 839 840 841 842 842 843
734 740 747 762 773 773 779 780 776 785 783 763 753 754 764 776 771 761 757 750 748 748 748 750 751 750 749 750 752 752 755 758 759 762 766 769 772 771 769 769 768 766 764 764 767 771 774 777 778 777 776 778 782 785 787 790 792 794 795 796 796 798 800 802 803 804 805 805 807 808 809 811 812 813 814 815 816 818 820 822 824 825 827 828 830 831 832 834 835 836 837 839 840 841 841 842 843
737 743 752 767 779 789 795 790 786 785 775 758 748 754 772 780 769 760 757 753 751 749 749 751 752 753 754 756 757 758 759 763 767 771 774 777 779 780 779 778 777 776 776 775 776 777 779 779 781 781 779 779 782 785 788 792 794 795 798 799 799 799 800 802 803 804 806 807 808 809 810 811 812 812 814 815 816 818 820 822 824 826 827 829 830 832 833 834 835 836 837 838 839 840 841 841 842
737 735 744 760 767 780 789 784 782 782 772 760 752 760 778 782 772 760 756 755 753 753 753 753 754 756 758 761 762 764 766 767 769 772 775 775 777 780 780 778 777 779 781 782 782 782 782 781 781 781 779 778 780 785 790 795 797 798 800 801 801 801 801 802 803 804 806 807 808 809 810 811 812 813 814 815 816 818 820 822 824 826 828 829 831 832 833 835 836 836 837 838 839 839 840 841 842
737 729 741 755 752 758 771 769 766 770 774 769 764 772 776 771 766 757 754 758 758 758 759 759 763 765 764 767 769 771 772 771 771 773 775 776 777 779 779 776 775 777 779 781 782 781 781 782 781 779 777 776 779 784 790 795 798 799 801 803 802 801 801 801 801 803 805 806 808 809 810 811 812 813 814 814 816 818 820 822 824 826 828 830 831 833 834 835 836 837 837 838 838 839 839 840 841
738 736 746 744 733 741 761 766 759 763 780 774 765 779 781 772 770 761 757 765 766 766 768 768 771 771 770 772 774 774 774 773 774 775 777 779 779 781 781 776 774 774 775 778 781 780 779 780 780 779 778 777 779 783 787 791 794 797 800 802 803 802 800 799 799 801 803 805 807 808 809 811 812 813 813 815 816 818 820 822 824 826 828 830 831 833 834 835 836 837 837 838 838 839 839 840 840
738 744 740 731 731 738 750 766 768 771 785 775 762 778 786 782 784 773 764 772 776 776 777 777 778 777 777 778 778 778 777 777 779 780 780 781 780 780 781 778 775 773 773 776 780 782 780 779 778 779 780 780 781 783 787 790 792 794 795 797 800 800 800 799 798 799 801 803 805 807 808 810 811 813 814 815 817 819 821 823 825 827 828 830 831 832 833 834 836 837 837 838 839 839 839 840 840
728 733 725 730 751 755 752 764 773 777 786 778 768 778 786 787 790 783 776 779 782 783 783 784 785 785 785 786 784 784 784 783 784 784 783 782 781 781 780 779 776 774 773 774 778 782 784 781 779 778 779 782 784 786 789 792 792 793 794 795 797 798 799 800 800 800 801 803 804 806 807 809 811 812 814 816 818 820 822 824 825 827 828 829 830 832 833 834 835 836 837 838 839 839 840 840 840
721 725 724 728 742 750 751 754 760 769 780 779 776 785 792 792 791 789 787 785 784 785 786 788 791 790 790 790 789 789 788 788 787 787 786 784 783 783 781 780 778 775 775 774 774 779 785 786 784 782 780 780 781 783 787 790 791 793 793 793 795 797 799 801 802 802 802 803 804 806 807 809 811 813 815 816 819 820 822 824 825 826 827 828 830 831 832 834 835 836 837 838 839 839 840 840 841
729 734 737 735 733 736 743 746 745 755 771 775 778 791 796 789 785 789 790 786 783 783 787 791 792 792 793 792 791 790 789 788 788 788 788 786 784 783 781 780 779 778 777 777 774 776 782 787 788 785 781 778 778 780 785 787 788 790 791 790 792 795 798 800 802 803 803 803 805 807 809 810 812 814 815 817 819 820 822 824 825 826 827 828 829 830 832 834 835 836 837 838 839 839 840 840 841
728 734 735 737 738 739 751 759 748 744 759 768 774 791 797 786 783 788 789 786 782 781 785 791 792 793 795 794 792 790 789 788 788 788 788 786 784 782 781 781 780 779 779 780 779 778 780 783 785 785 783 780 778 780 784 787 788 789 789 789 791 794 797 798 800 802 803 804 806 808 810 811 813 814 816 817 819 821 822 824 825 827 828 829 830 831 832 834 835 836 837 838 838 839 840 840 841